Weather History for KALW - July, 2013

Change the Weather History Date:

Thursday, July 4, 2013

  Actual Average (KPDT) Record (KPDT)
Temperature  
Mean Temperature 79 °F 70 °F  
Max Temperature 90 °F 85 °F 107 °F (1975)
Min Temperature 69 °F 55 °F 40 °F (1918)
Degree Days  
Heating Degree Days 0 1  
Month to date heating degree days 4  
Since 1 June heating degree days 87  
Since 1 July heating degree days 4  
Cooling Degree Days 14 6  
Month to date cooling degree days 21  
Year to date cooling degree days 123  
Since 1 June cooling degree days 100  
Growing Degree Days 29 (Base 50)    
Moisture  
Dew Point 38 °F    
Average Humidity 24    
Maximum Humidity 49    
Minimum Humidity 15    
Precipitation  
Precipitation 0.00 in 0.02 in 0.44 in (1986)
Month to date precipitation 0.06  
Year to date precipitation 7.45  
Snow  
Snow 0.00 in 0.00 in 0.00 in (2002)
Month to date snowfall 0.0  
Year to date snowfall 7.7  
Since 1 July snowfall 0.0  
Snow Depth -    
Sea Level Pressure  
Sea Level Pressure 29.88 in    
Wind  
Wind Speed 12 mph (SSW)    
Max Wind Speed 16 mph    
Max Gust Speed 25 mph    
Visibility 10 miles    
Events      
T = Trace of Precipitation, MM = Missing Value Source: NWS Daily Summary

Daily Weather History Graph

Daily Weather History Graph

Search for Another Location

Airport or City:

Trip Planner

Search our weather history database for the weather conditions in past years. The results will help you decide how hot, cold, wet, or windy it might be!

Date:

Astronomy

Jul. 04, 2013 Rise Set
Actual Time 5:08 AM PDT 8:46 PM PDT
Civil Twilight 4:29 AM PDT 9:25 PM PDT
Nautical Twilight 3:38 AM PDT 10:15 PM PDT
Astronomical Twilight 2:29 AM PDT 11:24 PM PDT
Moon 2:32 AM PDT (7/4) 5:51 PM PDT (7/4)
Length of Visible Light 16h 55m
Length of Day
15h 38m
Waning Crescent, 11% of the Moon is Illuminated
Jul 4
Waning Crescent
Jul 8
New
Jul 15
First Quarter
Jul 22
Full
Jul 29
Last Quarter

Hourly Weather History & Observations

Time (PDT) Temp. Dew Point Humidity Pressure Visibility Wind Dir Wind Speed Gust Speed Precip Events Conditions
12:53 AM 73.9 °F 42.1 °F 32% 29.92 in 10.0 mi South 12.7 mph - N/A   Clear
1:53 AM 72.0 °F 41.0 °F 33% 29.93 in 10.0 mi South 13.8 mph - N/A   Clear
2:53 AM 70.0 °F 39.9 °F 33% 29.94 in 10.0 mi South 11.5 mph - N/A   Clear
3:53 AM 70.0 °F 37.9 °F 31% 29.93 in 10.0 mi South 11.5 mph - N/A   Clear
4:53 AM 69.1 °F 36.0 °F 30% 29.93 in 10.0 mi SSW 15.0 mph - N/A   Clear
5:53 AM 69.1 °F 34.0 °F 27% 29.93 in 10.0 mi SSW 11.5 mph - N/A   Clear
6:53 AM 73.0 °F 30.9 °F 21% 29.94 in 10.0 mi South 13.8 mph - N/A   Clear
7:53 AM 75.0 °F 33.1 °F 22% 29.93 in 10.0 mi SSW 15.0 mph - N/A   Clear
8:53 AM 77.0 °F 34.0 °F 21% 29.95 in 10.0 mi SW 9.2 mph - N/A   Clear
9:53 AM 80.1 °F 30.9 °F 17% 29.93 in 10.0 mi SSW 16.1 mph 25.3 mph N/A   Clear
10:53 AM 82.0 °F 33.1 °F 17% 29.92 in 10.0 mi SSW 12.7 mph - N/A   Clear
11:53 AM 82.9 °F 30.9 °F 15% 29.91 in 10.0 mi SSW 15.0 mph 23.0 mph N/A   Clear
12:53 PM 84.0 °F 36.0 °F 18% 29.91 in 10.0 mi SW 13.8 mph 20.7 mph N/A   Clear
1:53 PM 87.1 °F 35.1 °F 16% 29.88 in 10.0 mi WSW 12.7 mph 16.1 mph N/A   Clear
2:53 PM 87.1 °F 35.1 °F 16% 29.86 in 10.0 mi SW 9.2 mph 16.1 mph N/A   Clear
3:53 PM 88.0 °F 37.0 °F 16% 29.84 in 10.0 mi Variable 5.8 mph 16.1 mph N/A   Clear
4:53 PM 88.0 °F 37.0 °F 16% 29.81 in 10.0 mi Variable 3.5 mph - N/A   Clear
5:53 PM 89.1 °F 37.9 °F 16% 29.80 in 10.0 mi WSW 11.5 mph 16.1 mph N/A   Clear
6:53 PM 89.1 °F 37.9 °F 16% 29.79 in 10.0 mi West 9.2 mph - N/A   Clear
7:53 PM 86.0 °F 39.9 °F 20% 29.78 in 10.0 mi WSW 8.1 mph - N/A   Clear
8:53 PM 80.1 °F 43.0 °F 27% 29.79 in 10.0 mi West 10.4 mph - N/A   Clear
9:53 PM 75.0 °F 46.9 °F 37% 29.83 in 10.0 mi South 11.5 mph - N/A   Clear
10:53 PM 72.0 °F 46.9 °F 41% 29.85 in 10.0 mi South 9.2 mph - N/A   Clear
11:53 PM 69.1 °F 48.9 °F 49% 29.86 in 10.0 mi South 9.2 mph - N/A   Clear